Location: Friedrichshafen
(47.6598°N, 9.4819°E)
Time: 03:15:21
(UTC+02:00)

ISS - Visible Passes

Search period start: 25 May 2017 00:00
Search period end: 04 June 2017 00:00
Orbit: 402 x 409 km, 51.6° (Epoch: 25 May)

Date Brightness Start Highest point End Pass type
(mag) Time Alt. Az. Time Alt. Az. Time Alt. Az.
25 May -2.4 01:06:03 10° WNW 01:09:11 40° N 01:12:20 10° ENE visible
25 May -3.2 02:42:48 10° WNW 02:46:03 56° NNE 02:49:17 10° E visible
25 May -3.3 04:19:25 10° WNW 04:22:28 35° SW 04:25:29 10° SSE visible
25 May -3.9 22:37:10 10° SW 22:40:26 63° SSE 22:43:41 10° ENE visible
26 May -2.6 00:13:51 10° W 00:17:02 44° N 00:20:14 10° ENE visible
26 May -2.7 01:50:44 10° WNW 01:53:55 45° N 01:57:07 10° E visible
26 May -3.9 03:27:17 10° WNW 03:30:31 59° SSW 03:33:44 10° SE visible
26 May -3.3 21:45:23 10° SW 21:48:28 38° SE 21:51:34 10° ENE visible
26 May -3.1 23:21:40 10° W 23:24:55 54° NNW 23:28:10 10° ENE visible
27 May -2.4 00:58:38 10° WNW 01:01:47 40° N 01:04:55 10° ENE visible
27 May -3.9 02:35:12 10° WNW 02:38:30 89° N 02:41:48 10° ESE visible
27 May -2.4 04:12:19 10° W 04:14:38 18° SW 04:16:57 10° S visible
27 May -3.6 22:29:30 10° WSW 22:32:48 74° NNW 22:36:06 10° ENE visible
28 May -2.4 00:06:28 10° WNW 00:09:36 39° N 00:12:44 10° ENE visible
28 May -3.4 01:43:08 10° WNW 01:46:26 63° NNE 01:47:25 39° E visible
28 May -1.3 03:19:51 10° W 03:19:57 11° W 03:19:57 11° W visible
28 May -2.5 23:14:14 10° W 23:17:24 42° N 23:20:35 10° ENE visible
29 May -2.9 00:51:04 10° WNW 00:54:17 48° NNE 00:56:00 23° ENE visible
29 May -1.7 02:27:38 10° WNW 02:28:36 18° WNW 02:28:36 18° WNW visible
29 May -2.8 22:22:00 10° W 22:25:14 50° NNW 22:28:28 10° ENE visible
29 May -2.5 23:58:56 10° WNW 00:02:06 41° N 00:05:06 11° ENE visible
30 May -2.9 01:35:29 10° WNW 01:37:42 39° WNW 01:37:42 39° WNW visible
30 May -2.4 23:06:45 10° WNW 23:09:54 39° N 23:13:01 10° ENE visible
31 May -3.7 00:43:23 10° WNW 00:46:41 71° NNE 00:47:00 64° ENE visible
31 May -2.4 22:14:31 10° WNW 22:17:40 40° N 22:20:49 10° ENE visible
31 May -3.1 23:51:17 10° WNW 23:54:32 53° NNE 23:56:23 22° E visible
01 Jun -1.8 01:27:52 10° WNW 01:29:01 19° W 01:29:01 19° W visible
01 Jun -2.7 22:59:08 10° WNW 23:02:18 43° N 23:05:29 10° E visible
02 Jun -3.5 00:35:40 10° WNW 00:38:28 56° WSW 00:38:28 56° WSW visible
02 Jun -2.5 22:06:55 10° WNW 22:10:04 39° N 22:13:12 10° ENE visible
02 Jun -3.8 23:43:31 10° WNW 23:46:49 82° NNE 23:47:56 38° ESE visible
03 Jun -1.1 01:20:29 10° W 01:20:35 11° W 01:20:35 11° W visible
03 Jun -3.3 22:51:22 10° WNW 22:54:39 58° NNE 22:57:28 13° E visible
